[[{"header":{"parameterUnit":"m.s-1","parameterCategory":2,"la1":30.2991,"la2":30.254,"lo1":-89.0895,"lo2":-89.0444,"dx":0.0017,"dy":0.0017,"nx":28,"ny":28,"refTime":"2022-11-03T21:00:00:Z","depth":"0","parameterNumber":2,"parameterNumberName":"U-component_of_CURRENTS"},"data":[0,0,0,0,0,0,0,0,0,0,0,0,0,0,0,0,0,0,0,0,0,0,0,0,0,0,0,0,0,0,0,0,0,0,0,0,0,0,0,0,0,0,0,0,0,0,0,0,0,0,0,0,0,0,0,0,0,0,0.1716,0.1716,0,0.172,0.172,0.1719,0.1715,0.1715,0.1715,0.1715,0.1693,0.1692,0.1691,0,0,0,0,0,0,0,0,0,0,0,0,0,0.1677,0.1678,0.1716,0.1716,0.1717,0.172,0.172,0.1719,0.1715,0.1715,0.1715,0.1716,0.1693,0.1692,0.1691,0,0,0,0,0,0,0,0,0,0,0,0,0,0.1686,0.1678,0.1716,0.1717,0.1717,0.172,0.1719,0.1719,0.1715,0.1715,0.1715,0.1716,0.1693,0.1692,0.1691,0.1681,0,0,0.1688,0.1687,0,0,0,0,0,0,0,0,0.1685,0.1687,0.1717,0.1717,0.1717,0.172,0.1698,0.1706,0.1715,0.1713,0.1715,0.1716,0.1701,0.1699,0.1696,0.168,0.1679,0.1688,0.1687,0.1687,0.1686,0,0,0,0,0,0,0,0.1685,0.1687,0.1714,0.1717,0.1718,0.1708,0.1709,0.1699,0.1703,0.1713,0.1714,0.1719,0.1701,0.1697,0.1695,0.1679,0.1688,0.1687,0.1686,0.1686,0.1706,0.1707,0,0,0,0,0,0,0.1692,0.1686,0.1714,0.1715,0.1705,0.1709,0.171,0.1716,0.1704,0.1703,0.1718,0.1718,0.1699,0.1697,0.1694,0.1715,0.1687,0.1686,0.1685,0.1705,0.1706,0.1708,0,0,0,0,0,0,0.1691,0.1694,0.1714,0.1703,0.1705,0.171,0.1716,0.1716,0.1722,0.1709,0.1707,0.1725,0.1699,0.1696,0.1701,0.1713,0.1685,0.1684,0.1704,0.1705,0.1707,0.1735,0,0,0,0,0,0,0.169,0.1694,0.1697,0.1703,0.1706,0.1727,0.1717,0.1717,0.1725,0.1725,0.1714,0.1711,0.1699,0.1703,0.17,0.1711,0.1683,0.1702,0.1704,0.1707,0.1733,0.1738,0.1742,0,0,0,0,0,0.1688,0.1692,0.1697,0.17,0.1712,0.1728,0.1728,0.1729,0.1726,0.1733,0.1729,0.1712,0.1715,0.1703,0.1699,0.171,0.1701,0.1704,0.1706,0.1731,0.1737,0.1742,0,0,0,0,0,0,0.1672,0.1692,0.1698,0.1707,0.1723,0.1728,0.1731,0.1735,0.1736,0.1734,0.1721,0.1719,0.1731,0.172,0.1707,0.1726,0.1708,0.171,0.1728,0.1733,0.1738,0.1731,0.1682,0,0,0,0,0,0.1673,0.1682,0.1702,0.1709,0.1718,0.1727,0.1732,0.1737,0.1741,0.1742,0.1736,0.1733,0.1737,0.1735,0.1735,0.1738,0.1743,0.1747,0.1751,0.1755,0.1749,0.1768,0.1773,0.1716,0.1716,0.1716,0,0,0.1667,0.168,0.1684,0.1707,0.1715,0.1728,0.1729,0.1743,0.1753,0.1738,0.1744,0.1747,0.1744,0.1754,0.1758,0.1745,0.1781,0.1758,0.1761,0.1753,0.1771,0.1776,0.1781,0.1718,0.1718,0.1718,0,0,0.1662,0.1676,0.1683,0.1699,0.1722,0.173,0.1739,0.1754,0.1761,0.1771,0.177,0.1781,0.1777,0.1781,0.1782,0.1811,0.1807,0.1817,0.1827,0.1846,0.185,0.1854,0.1893,0.1899,0.1816,0.1816,0.1816,0,0.1656,0.1667,0.1687,0.1701,0.1714,0.1734,0.1747,0.1758,0.1772,0.1778,0.1777,0.1791,0.1788,0.1805,0.1819,0.1819,0.1837,0.1804,0.1851,0.1854,0.1858,0.1896,0.1903,0.1817,0.1817,0.1817,0.1817,0,0.1657,0.1669,0.1676,0.1701,0.1719,0.1733,0.1759,0.1773,0.1783,0.1792,0.1814,0.1819,0.1825,0.1836,0.1833,0.1862,0.1872,0.1857,0.1833,0.1865,0.1904,0.1911,0.182,0.1819,0.1819,0.1818,0,0,0.1638,0.167,0.1672,0.168,0.172,0.173,0.1758,0.1783,0.1796,0.1813,0.183,0.1846,0.1852,0.1855,0.1863,0.1879,0.1929,0.188,0.188,0.1911,0.1992,0.1993,0.2001,0.1923,0.1924,0.1925,0.2018,0,0.1633,0.1648,0.1673,0.1687,0.1697,0.1731,0.1753,0.178,0.1804,0.1826,0.1844,0.1864,0.186,0.1872,0.1888,0.1918,0.1945,0.1906,0.1961,0.1963,0.1954,0.2007,0.1953,0.203,0.2025,0.2026,0.2027,0,0.1626,0.1637,0.1649,0.1677,0.1686,0.1698,0.1736,0.1759,0.1804,0.1825,0.1851,0.1873,0.1909,0.1899,0.196,0.1938,0.1967,0.1988,0.1992,0.1982,0.1976,0.1993,0.2042,0.2003,0.2038,0.2037,0.2036,0,0.1591,0.1619,0.1623,0.1633,0.1672,0.1681,0.1702,0.175,0.1773,0.1826,0.185,0.1894,0.1921,0.1958,0.2008,0.1989,0.2081,0.2056,0.2089,0.209,0.2047,0.2042,0.2053,0.2099,0.2099,0.2099,0.2099,0,0.1575,0.1575,0.1601,0.1602,0.1608,0.1648,0.1667,0.17,0.1752,0.1777,0.1839,0.1872,0.1936,0.1997,0.2029,0.2092,0.21,0.2104,0.2114,0.2059,0.2055,0.2019,0.1963,0.2102,0.2102,0.2101,0.21,0,0.1535,0.1554,0.1556,0.1584,0.1591,0.1593,0.1636,0.1654,0.1713,0.1751,0.1771,0.1867,0.1948,0.2024,0.2103,0.2123,0.2104,0.2197,0.2143,0.2143,0.2114,0.2061,0.1887,0.1837,0.2244,0.2244,0.2245,0,0.1517,0.1512,0.1528,0.1527,0.1536,0.1549,0.1564,0.1622,0.1643,0.1739,0.1751,0.1861,0.1923,0.2064,0.2128,0.2213,0.2116,0.2216,0.2155,0.2118,0.2066,0.1875,0.1832,0.2126,0.2125,0.2125,0.2124,0,0.1479,0.1482,0.1484,0.1481,0.1485,0.1492,0.1512,0.1526,0.1597,0.1638,0.1705,0.177,0.1923,0.2001,0.2135,0.2172,0.2071,0.2209,0.2175,0.198,0.1763,0.172,0.2076,0.2121,0.2121,0.2121,0.2121,0.2122,0.1449,0.1438,0.1439,0.1429,0.1432,0.1427,0.1413,0.1447,0.1473,0.1519,0.162,0.1696,0.1877,0.205,0.2074,0.2121,0.2023,0.2098,0.2045,0.1861,0.1768,0.2128,0.2173,0.2173,0.2174,0.2175,0.2175,0,0.1408,0.1398,0.1388,0.137,0.1345,0.1367,0.1368,0.135,0.135,0.1445,0.1496,0.1663,0.1778,0.1913,0.2035,0.1986,0.1839,0.1943,0.1676,0.1654,0.2011,0.1967,0.1961,0.1961,0.1961,0.1961,0.1961,0.1961,0.1387,0.1359,0.1346,0.1286,0.1269,0.1221,0.1208,0.1195,0.1241,0.1301,0.1385,0.1476,0.1669,0.1799,0.1832,0.1812,0.1635,0.1516,0.1501,0.1795,0.1805,0.1815,0.1763,0.1715,0.1714,0.1075,0.107,0.1066]},{"header":{"parameterUnit":"m.s-1","parameterCategory":2,"la1":30.2991,"la2":30.254,"lo1":-89.0895,"lo2":-89.0444,"dx":0.0017,"dy":0.0017,"nx":28,"ny":28,"refTime":"2022-11-03T21:00:00:Z","depth":"0","parameterNumber":3,"parameterNumberName":"V-component_of_CURRENTS"},"data":[0,0,0,0,0,0,0,0,0,0,0,0,0,0,0,0,0,0,0,0,0,0,0,0,0,0,0,0,0,0,0,0,0,0,0,0,0,0,0,0,0,0,0,0,0,0,0,0,0,0,0,0,0,0,0,0,0,0,0.0202,0.0202,0,0.0161,0.016,0.016,0.0131,0.013,0.013,0.013,0.0053,0.0051,0.0049,0,0,0,0,0,0,0,0,0,0,0,0,0,0.0242,0.0241,0.0202,0.0202,0.0202,0.0161,0.016,0.016,0.0131,0.013,0.013,0.013,0.0053,0.0051,0.0049,0,0,0,0,0,0,0,0,0,0,0,0,0,0.0214,0.0241,0.0203,0.0182,0.018,0.0161,0.016,0.0159,0.0131,0.013,0.013,0.013,0.0054,0.0051,0.0048,0.0036,0,0,0.004,0.0038,0,0,0,0,0,0,0,0,0.0216,0.0213,0.0186,0.0184,0.0181,0.0151,0.0146,0.0117,0.0131,0.0149,0.013,0.013,0.0083,0.0077,0.007,0.0033,0.0029,0.0039,0.0038,0.0037,0.0036,0,0,0,0,0,0,0,0.0218,0.0214,0.0185,0.0185,0.0183,0.017,0.0166,0.014,0.0117,0.0147,0.0145,0.0141,0.0081,0.0073,0.0068,0.0028,0.004,0.0037,0.0035,0.0034,-0.0014,-0.0014,0,0,0,0,0,0,0.0225,0.0216,0.0187,0.0184,0.0199,0.017,0.0165,0.0161,0.0118,0.0111,0.0142,0.014,0.0078,0.0071,0.0065,0.0054,0.0037,0.0034,0.0032,-0.0015,-0.0014,-0.0014,0,0,0,0,0,0,0.0226,0.0223,0.0188,0.02,0.0195,0.017,0.0165,0.016,0.0151,0.0114,0.0107,0.0138,0.0077,0.0069,0.0049,0.0051,0.0033,0.003,-0.0015,-0.0014,-0.0014,0.0028,0,0,0,0,0,0,0.0227,0.0223,0.0224,0.02,0.0194,0.0181,0.0165,0.0159,0.015,0.0147,0.0108,0.0101,0.0077,0.0054,0.0047,0.0046,0.0028,-0.0016,-0.0015,-0.0014,0.0026,0.003,0.0033,0,0,0,0,0,0.0229,0.0231,0.0224,0.022,0.0195,0.0181,0.0177,0.0158,0.015,0.0149,0.0127,0.0102,0.0054,0.0052,0.0043,0.0042,-0.0016,-0.0015,-0.0014,0.0025,0.0029,0.0033,0,0,0,0,0,0,0.0248,0.0227,0.0219,0.0215,0.0201,0.0176,0.0174,0.0161,0.0143,0.0141,0.0106,0.0097,0.0081,0.0058,0.0057,0.0032,0.0015,0.0014,0.0048,0.0052,0.0055,0.007,0.0025,0,0,0,0,0,0.0253,0.025,0.0228,0.0226,0.022,0.0198,0.0191,0.0179,0.0159,0.0151,0.0125,0.01,0.0078,0.0063,0.0041,0.0025,0.0015,0.002,0.0023,0.0026,0.0034,0.0022,0.0025,-0.0011,-0.0011,-0.0011,0,0,0.0261,0.025,0.0248,0.023,0.0219,0.0217,0.0193,0.0186,0.0185,0.0145,0.0137,0.0111,0.0078,0.0063,0.0053,0.0043,0.0033,0.0028,0.0031,0.0036,0.0023,0.0027,0.003,-0.001,-0.001,-0.001,0,0,0.0278,0.0265,0.0269,0.0259,0.0245,0.0233,0.0233,0.0211,0.0201,0.019,0.0163,0.0141,0.0107,0.0085,0.0068,0.0079,0.0054,0.0069,0.0095,0.0084,0.0087,0.0089,0.0089,0.0091,0.0069,0.0069,0.0069,0,0.0291,0.029,0.0268,0.027,0.0268,0.0243,0.025,0.0237,0.0213,0.0208,0.0194,0.0151,0.0118,0.0101,0.0104,0.0086,0.0082,0.0081,0.0089,0.0091,0.0093,0.0092,0.0094,0.0071,0.0071,0.0071,0.007,0,0.0309,0.0309,0.0312,0.0307,0.0302,0.0304,0.0286,0.0281,0.0266,0.0252,0.0234,0.0194,0.0169,0.0152,0.0128,0.0123,0.0118,0.0097,0.0079,0.0099,0.0097,0.0098,0.0074,0.0073,0.0073,0.0072,0,0,0.0338,0.0327,0.0329,0.0335,0.0323,0.0323,0.0324,0.0317,0.0323,0.0293,0.0296,0.025,0.0229,0.021,0.0175,0.0159,0.0163,0.0137,0.0135,0.014,0.0151,0.0155,0.0156,0.0146,0.0146,0.0146,0.0148,0,0.0362,0.0374,0.0362,0.0381,0.0387,0.0369,0.0374,0.0365,0.0353,0.035,0.0307,0.0296,0.0251,0.0242,0.0218,0.0179,0.0167,0.0166,0.0129,0.0128,0.0131,0.0157,0.0202,0.0208,0.0149,0.0149,0.0149,0,0.0386,0.0391,0.0409,0.0418,0.042,0.0427,0.0435,0.0439,0.0425,0.0415,0.0394,0.0364,0.0335,0.0295,0.0243,0.0246,0.0207,0.0173,0.0172,0.0162,0.0133,0.0176,0.0212,0.0179,0.015,0.015,0.015,0,0.0417,0.0428,0.0444,0.0446,0.0449,0.0456,0.0463,0.0458,0.0472,0.0461,0.0473,0.0425,0.0415,0.0356,0.0285,0.0268,0.0233,0.0198,0.0166,0.0166,0.019,0.0192,0.0192,0.0168,0.0168,0.0168,0.0168,0,0.0446,0.0462,0.0459,0.0468,0.0496,0.049,0.0522,0.0518,0.0528,0.056,0.0513,0.0531,0.0432,0.0397,0.0318,0.0256,0.026,0.0183,0.0169,0.0207,0.021,0.0169,0.0142,0.0168,0.0168,0.0168,0.0168,0,0.0475,0.0471,0.0493,0.0501,0.0508,0.0531,0.0565,0.059,0.0596,0.0638,0.0642,0.0617,0.058,0.0482,0.0394,0.0313,0.0228,0.0215,0.0272,0.0265,0.0193,0.0167,0.0158,0.0128,0.0182,0.0182,0.0182,0,0.049,0.05,0.0519,0.0537,0.0542,0.0576,0.0602,0.0619,0.0653,0.07,0.0726,0.0709,0.071,0.0585,0.045,0.0328,0.0261,0.0271,0.0236,0.021,0.017,0.0154,0.0127,0.0289,0.029,0.0291,0.0292,0,0.0519,0.052,0.0536,0.0572,0.0601,0.0644,0.0685,0.0722,0.0759,0.0809,0.0874,0.0885,0.0786,0.0705,0.053,0.0421,0.0266,0.0282,0.0242,0.025,0.0246,0.0204,0.0271,0.0299,0.0298,0.0298,0.0297,0.0297,0.0541,0.0558,0.0576,0.0612,0.0649,0.0703,0.0747,0.0805,0.0881,0.0966,0.0985,0.1056,0.095,0.073,0.0565,0.0351,0.032,0.0285,0.0256,0.0242,0.0216,0.0302,0.0317,0.0316,0.0316,0.0315,0.0315,0,0.0569,0.0585,0.0617,0.0661,0.0708,0.0721,0.0797,0.0852,0.0951,0.1068,0.1142,0.1234,0.1056,0.0859,0.059,0.0393,0.0289,0.0276,0.0268,0.0237,0.0313,0.0321,0.0354,0.0354,0.0354,0.0354,0.0354,0.0354,0.0585,0.0615,0.0627,0.0699,0.0735,0.0804,0.085,0.0937,0.1041,0.1239,0.1387,0.1469,0.1468,0.0909,0.0549,0.0405,0.0276,0.0235,0.015,0.0213,0.0211,0.021,0.0211,0.022,0.022,0.0104,0.0103,0.0102]}],[{"header":{"parameterUnit":"m.s-1","parameterCategory":2,"la1":30.2991,"la2":30.254,"lo1":-89.0895,"lo2":-89.0444,"dx":0.0017,"dy":0.0017,"nx":28,"ny":28,"refTime":"2022-11-03T21:00:00:Z","depth":"2","parameterNumber":2,"parameterNumberName":"U-component_of_CURRENTS"},"data":[0,0,0,0,0,0,0,0,0,0,0,0,0,0,0,0,0,0,0,0,0,0,0,0,0,0,0,0,0,0,0,0,0,0,0,0,0,0,0,0,0,0,0,0,0,0,0,0,0,0,0,0,0,0,0,0,0,0,0.1732,0.1732,0,0.1737,0.1737,0.1737,0.1733,0.1733,0.1733,0.1733,0.1713,0.1712,0.1711,0,0,0,0,0,0,0,0,0,0,0,0,0,0.1692,0.1692,0.1732,0.1732,0.1732,0.1737,0.1737,0.1737,0.1733,0.1733,0.1733,0.1734,0.1713,0.1712,0.1711,0,0,0,0,0,0,0,0,0,0,0,0,0,0.1702,0.1693,0.1732,0.1733,0.1734,0.1737,0.1737,0.1737,0.1733,0.1733,0.1733,0.1734,0.1713,0.1712,0.1711,0.1702,0,0,0.1708,0.1708,0,0,0,0,0,0,0,0,0.1701,0.1703,0.1733,0.1733,0.1734,0.1737,0.1715,0.1725,0.1733,0.173,0.1733,0.1734,0.172,0.1719,0.1716,0.1701,0.17,0.1708,0.1708,0.1707,0.1707,0,0,0,0,0,0,0,0.17,0.1702,0.1731,0.1733,0.1734,0.1725,0.1726,0.1717,0.1722,0.1731,0.1731,0.1736,0.172,0.1717,0.1715,0.17,0.1708,0.1707,0.1707,0.1706,0.1729,0.173,0,0,0,0,0,0,0.1707,0.1702,0.1731,0.1731,0.1721,0.1726,0.1727,0.1734,0.1722,0.1722,0.1736,0.1736,0.1718,0.1716,0.1714,0.1736,0.1707,0.1706,0.1706,0.1728,0.173,0.1731,0,0,0,0,0,0,0.1706,0.1709,0.1731,0.1719,0.1721,0.1727,0.1734,0.1734,0.1739,0.1727,0.1726,0.1743,0.1718,0.1716,0.1722,0.1734,0.1706,0.1705,0.1727,0.1729,0.173,0.1757,0,0,0,0,0,0,0.1705,0.1709,0.1712,0.1719,0.1722,0.1743,0.1734,0.1734,0.1743,0.1743,0.1732,0.173,0.1718,0.1724,0.1721,0.1732,0.1704,0.1725,0.1728,0.173,0.1755,0.176,0.1764,0,0,0,0,0,0.1703,0.1707,0.1712,0.1716,0.1728,0.1744,0.1745,0.1747,0.1743,0.175,0.1747,0.1731,0.1736,0.1724,0.172,0.1731,0.1724,0.1727,0.173,0.1753,0.1759,0.1764,0,0,0,0,0,0,0.1687,0.1708,0.1713,0.1722,0.1739,0.1745,0.1748,0.1752,0.1754,0.1752,0.174,0.1738,0.1751,0.1741,0.1727,0.1748,0.173,0.1732,0.1749,0.1754,0.1758,0.1751,0.1703,0,0,0,0,0,0.1688,0.1697,0.1718,0.1725,0.1734,0.1743,0.1748,0.1754,0.1759,0.176,0.1754,0.1752,0.1758,0.1756,0.1757,0.176,0.1765,0.1769,0.1774,0.1777,0.1772,0.1791,0.1796,0.174,0.174,0.174,0,0,0.1682,0.1695,0.17,0.1723,0.1731,0.1745,0.1746,0.176,0.177,0.1756,0.1763,0.1767,0.1765,0.1775,0.178,0.1767,0.1803,0.1781,0.1784,0.1776,0.1794,0.1799,0.1804,0.1741,0.1741,0.1741,0,0,0.1677,0.1691,0.1698,0.1715,0.1738,0.1747,0.1756,0.1771,0.1778,0.1788,0.1788,0.18,0.1798,0.1802,0.1803,0.1833,0.1829,0.1839,0.1848,0.1868,0.1872,0.1876,0.1913,0.192,0.1837,0.1837,0.1837,0,0.1671,0.1683,0.1703,0.1717,0.173,0.1751,0.1763,0.1774,0.1789,0.1796,0.1795,0.1811,0.1809,0.1826,0.184,0.184,0.1859,0.1825,0.1872,0.1876,0.1879,0.1917,0.1924,0.1839,0.1839,0.1839,0.1838,0,0.1672,0.1685,0.1691,0.1717,0.1735,0.1749,0.1776,0.179,0.18,0.1809,0.1833,0.1838,0.1845,0.1856,0.1853,0.1882,0.1892,0.1878,0.1854,0.1886,0.1924,0.1931,0.1841,0.1841,0.184,0.184,0,0,0.1653,0.1686,0.1688,0.1696,0.1737,0.1746,0.1774,0.18,0.1813,0.1831,0.1848,0.1865,0.1872,0.1875,0.1883,0.1899,0.1949,0.19,0.1901,0.1931,0.2012,0.2011,0.2019,0.1944,0.1945,0.1946,0.2037,0,0.1649,0.1664,0.1689,0.1703,0.1714,0.1748,0.177,0.1797,0.1822,0.1844,0.1862,0.1882,0.1879,0.1891,0.1908,0.1938,0.1965,0.1926,0.1981,0.1983,0.1973,0.2026,0.1818,0.188,0.2044,0.2045,0.2046,0,0.1642,0.1654,0.1666,0.1694,0.1703,0.1716,0.1753,0.1777,0.1822,0.1843,0.1869,0.1891,0.1927,0.1917,0.1979,0.1958,0.1987,0.2008,0.2012,0.2001,0.1995,0.1871,0.1886,0.2057,0.2056,0.2055,0.2054,0,0.1608,0.1635,0.164,0.1651,0.1689,0.1699,0.1721,0.1769,0.1791,0.1844,0.1868,0.1912,0.194,0.1976,0.2027,0.2008,0.21,0.2075,0.2106,0.2108,0.1934,0.1919,0.2119,0.2119,0.2119,0.2119,0.2118,0,0.1592,0.1593,0.1618,0.1619,0.1627,0.1667,0.1686,0.1719,0.1771,0.1797,0.1858,0.1891,0.1955,0.2015,0.2048,0.211,0.2118,0.2121,0.2131,0.1943,0.1928,0.2072,0.2065,0.2122,0.2121,0.2121,0.212,0,0.1553,0.1572,0.1573,0.1602,0.1609,0.1612,0.1656,0.1674,0.1733,0.1772,0.1792,0.1887,0.1968,0.2042,0.2121,0.214,0.2194,0.2213,0.2005,0.1988,0.2187,0.2181,0.2256,0.2256,0.2257,0.2257,0.2258,0,0.1534,0.153,0.1547,0.1546,0.1555,0.1569,0.1584,0.1643,0.1664,0.1761,0.1773,0.1882,0.1941,0.2079,0.2111,0.2185,0.2229,0.2069,0.1988,0.2199,0.2201,0.2194,0.2187,0.1778,0.1775,0.1772,0.177,0,0.1498,0.1501,0.1503,0.1501,0.1505,0.1513,0.1534,0.1548,0.162,0.166,0.1728,0.1789,0.191,0.1899,0.2017,0.2029,0.2039,0.2016,0.2276,0.1786,0.1759,0.1758,0.1764,0.1744,0.1746,0.1748,0.175,0.1751,0.1467,0.1458,0.1459,0.1449,0.1453,0.1448,0.1436,0.1469,0.1494,0.1536,0.163,0.1668,0.1728,0.1797,0.1777,0.1782,0.1933,0.1868,0.1872,0.188,0.1818,0.1794,0.1776,0.1779,0.1781,0.1783,0.1785,0,0.1426,0.1418,0.1408,0.1391,0.1367,0.1389,0.1392,0.1377,0.1377,0.1443,0.1481,0.141,0.1414,0.1483,0.1437,0.149,0.1419,0.1449,0.1318,0.1347,0.1372,0.1278,0.1096,0.1094,0.1092,0.109,0,0,0.1405,0.1377,0.1364,0.1307,0.1293,0.125,0.1237,0.1231,0.1258,0.1255,0.1255,0.1355,0.1443,0.1238,0.123,0.1153,0.1234,0.1108,0.1663,0.1536,0.1558,0.1623,0.1515,0,0,0,0,0]},{"header":{"parameterUnit":"m.s-1","parameterCategory":2,"la1":30.2991,"la2":30.254,"lo1":-89.0895,"lo2":-89.0444,"dx":0.0017,"dy":0.0017,"nx":28,"ny":28,"refTime":"2022-11-03T21:00:00:Z","depth":"2","parameterNumber":3,"parameterNumberName":"V-component_of_CURRENTS"},"data":[0,0,0,0,0,0,0,0,0,0,0,0,0,0,0,0,0,0,0,0,0,0,0,0,0,0,0,0,0,0,0,0,0,0,0,0,0,0,0,0,0,0,0,0,0,0,0,0,0,0,0,0,0,0,0,0,0,0,0.014,0.014,0,0.0099,0.0099,0.0098,0.0071,0.0071,0.0071,0.007,-0.0004,-0.0006,-0.0008,0,0,0,0,0,0,0,0,0,0,0,0,0,0.0179,0.0179,0.014,0.014,0.0139,0.0099,0.0099,0.0098,0.0071,0.0071,0.0071,0.007,-0.0003,-0.0006,-0.0008,0,0,0,0,0,0,0,0,0,0,0,0,0,0.0153,0.0179,0.014,0.0121,0.0119,0.0099,0.0099,0.0098,0.0071,0.0071,0.0071,0.007,-0.0003,-0.0005,-0.0008,-0.0021,0,0,-0.0017,-0.0018,0,0,0,0,0,0,0,0,0.0154,0.0151,0.0124,0.0122,0.012,0.009,0.0085,0.0057,0.0071,0.0089,0.007,0.007,0.0025,0.002,0.0012,-0.0024,-0.0028,-0.0017,-0.0019,-0.002,-0.0021,0,0,0,0,0,0,0,0.0156,0.0153,0.0124,0.0124,0.0121,0.0109,0.0105,0.008,0.0058,0.0087,0.0085,0.0081,0.0023,0.0015,0.001,-0.0029,-0.0017,-0.0019,-0.0021,-0.0022,-0.007,-0.007,0,0,0,0,0,0,0.0163,0.0154,0.0125,0.0122,0.0137,0.0109,0.0105,0.01,0.0059,0.0052,0.0082,0.008,0.002,0.0014,0.0008,-0.0003,-0.002,-0.0022,-0.0024,-0.007,-0.007,-0.0069,0,0,0,0,0,0,0.0164,0.0161,0.0126,0.0138,0.0133,0.0109,0.0103,0.0099,0.0091,0.0055,0.0048,0.0079,0.002,0.0011,-0.0008,-0.0006,-0.0024,-0.0026,-0.0071,-0.007,-0.007,-0.0029,0,0,0,0,0,0,0.0165,0.0161,0.0162,0.0138,0.0132,0.0119,0.0104,0.0098,0.0089,0.0087,0.005,0.0043,0.0019,-0.0003,-0.001,-0.001,-0.0028,-0.0071,-0.0071,-0.007,-0.003,-0.0027,-0.0023,0,0,0,0,0,0.0167,0.0168,0.0162,0.0158,0.0133,0.0119,0.0115,0.0097,0.009,0.0088,0.0067,0.0044,-0.0004,-0.0005,-0.0014,-0.0014,-0.0072,-0.0071,-0.007,-0.0032,-0.0027,-0.0023,0,0,0,0,0,0,0.0187,0.0165,0.0158,0.0153,0.0139,0.0115,0.0113,0.01,0.0082,0.0082,0.0047,0.0039,0.0023,0.0001,0.0,-0.0025,-0.0041,-0.0042,-0.0009,-0.0005,-0.0002,0.0013,-0.0031,0,0,0,0,0,0.0192,0.0188,0.0166,0.0164,0.0158,0.0137,0.0129,0.0118,0.0099,0.0091,0.0066,0.0041,0.002,0.0005,-0.0016,-0.0032,-0.0043,-0.0037,-0.0034,-0.0031,-0.0024,-0.0037,-0.0034,-0.0067,-0.0067,-0.0067,0,0,0.02,0.0188,0.0186,0.0168,0.0157,0.0155,0.0132,0.0125,0.0124,0.0085,0.0077,0.0052,0.002,0.0005,-0.0004,-0.0014,-0.0025,-0.0029,-0.0027,-0.0021,-0.0036,-0.0033,-0.003,-0.0066,-0.0066,-0.0066,0,0,0.0217,0.0204,0.0207,0.0197,0.0183,0.0171,0.0171,0.0149,0.014,0.0129,0.0103,0.0082,0.0048,0.0026,0.001,0.0019,-0.0004,0.0011,0.0036,0.0023,0.0026,0.0028,0.0026,0.0028,0.001,0.001,0.001,0,0.0229,0.0227,0.0206,0.0208,0.0206,0.0181,0.0188,0.0175,0.0151,0.0146,0.0133,0.0091,0.0059,0.0041,0.0044,0.0027,0.0021,0.0022,0.0028,0.003,0.0031,0.0029,0.003,0.0012,0.0012,0.0012,0.0012,0,0.0246,0.0247,0.0249,0.0244,0.0239,0.024,0.0222,0.0217,0.0204,0.0189,0.0171,0.0132,0.0108,0.0091,0.0068,0.0062,0.0056,0.0036,0.0019,0.0037,0.0033,0.0034,0.0015,0.0015,0.0014,0.0014,0,0,0.0275,0.0263,0.0266,0.0271,0.0259,0.0259,0.0259,0.0252,0.0258,0.0229,0.0231,0.0186,0.0166,0.0147,0.0113,0.0095,0.0098,0.0074,0.0073,0.0076,0.0082,0.0087,0.0087,0.008,0.008,0.008,0.0078,0,0.0298,0.0309,0.0297,0.0315,0.0321,0.0304,0.0308,0.0299,0.0287,0.0283,0.024,0.0229,0.0187,0.0178,0.0154,0.0113,0.01,0.0101,0.0061,0.006,0.0064,0.0088,0.0041,0.0036,0.0078,0.0078,0.0078,0,0.0322,0.0326,0.0343,0.0352,0.0354,0.036,0.0368,0.0371,0.0356,0.0346,0.0325,0.0295,0.0265,0.0228,0.0173,0.0178,0.0138,0.0104,0.0102,0.0093,0.0066,0.0022,0.0035,0.0079,0.0079,0.0079,0.0079,0,0.0352,0.0362,0.0378,0.0379,0.0382,0.039,0.0396,0.039,0.0403,0.0391,0.0402,0.0353,0.0343,0.0282,0.0212,0.0196,0.0157,0.0123,0.0092,0.0092,0.0037,0.0032,0.0091,0.0091,0.0091,0.0091,0.0091,0,0.038,0.0396,0.0393,0.0402,0.043,0.0423,0.0455,0.0451,0.0459,0.0489,0.0441,0.0456,0.0358,0.0321,0.0243,0.0179,0.0182,0.0108,0.0093,0.0051,0.0048,0.0069,0.0067,0.0091,0.0091,0.0091,0.0091,0,0.0409,0.0405,0.0427,0.0435,0.0442,0.0465,0.0498,0.0522,0.0527,0.0566,0.0569,0.0541,0.0502,0.0403,0.0313,0.0234,0.016,0.0135,0.01,0.0082,0.0095,0.0095,0.0102,0.0102,0.0102,0.0102,0.0102,0,0.0424,0.0434,0.0453,0.0471,0.0476,0.051,0.0535,0.0551,0.0583,0.0626,0.0649,0.063,0.0621,0.0493,0.0329,0.0199,0.0196,0.0093,0.0049,0.0112,0.0097,0.0096,0.0096,-0.0009,-0.001,-0.001,-0.0011,0,0.0452,0.0454,0.047,0.0506,0.0535,0.0576,0.0616,0.0651,0.0685,0.0727,0.0785,0.0787,0.0658,0.0502,0.0317,0.0216,0.0106,0.0078,0.0147,0.0004,0.001,-0.0005,-0.0003,-0.0017,-0.0016,-0.0016,-0.0015,-0.0015,0.0474,0.0491,0.0509,0.0546,0.0582,0.0633,0.0676,0.0704,0.0766,0.0791,0.0838,0.0808,0.0662,0.0383,0.0237,0.0066,0.0088,0.0013,0.0014,0.0016,0.0011,0.0018,-0.0007,-0.0007,-0.0006,-0.0006,-0.0005,0,0.0489,0.0518,0.055,0.0593,0.0622,0.0653,0.0724,0.0726,0.0776,0.0794,0.0815,0.0646,0.0502,0.0351,0.0079,-0.0047,-0.0089,-0.008,-0.0111,-0.0104,-0.0099,-0.011,-0.0161,-0.0161,-0.0161,-0.0162,0,0,0.0502,0.0524,0.0536,0.0599,0.0647,0.0677,0.072,0.0711,0.0711,0.0679,0.0658,0.0641,0.051,0.0288,0.011,-0.0024,-0.0039,-0.0062,0.007,0.0058,0.0065,-0.0044,-0.0054,0,0,0,0,0]}],[{"header":{"parameterUnit":"m.s-1","parameterCategory":2,"la1":30.2991,"la2":30.254,"lo1":-89.0895,"lo2":-89.0444,"dx":0.0017,"dy":0.0017,"nx":28,"ny":28,"refTime":"2022-11-03T21:00:00:Z","depth":"4","parameterNumber":2,"parameterNumberName":"U-component_of_CURRENTS"},"data":[0,0,0,0,0,0,0,0,0,0,0,0,0,0,0,0,0,0,0,0,0,0,0,0,0,0,0,0,0,0,0,0,0,0,0,0,0,0,0,0,0,0,0,0,0,0,0,0,0,0,0,0,0,0,0,0,0,0,0.0999,0.1,0,0.1021,0.1021,0.1021,0.1061,0.1061,0.1062,0.1063,0.1123,0.1124,0.1125,0,0,0,0,0,0,0,0,0,0,0,0,0,0.0997,0.0997,0.0999,0.1,0.1,0.1021,0.1021,0.1021,0.1061,0.1061,0.1062,0.1063,0.1123,0.1124,0.1125,0,0,0,0,0,0,0,0,0,0,0,0,0,0.1007,0.0997,0.0999,0.1022,0.1024,0.1021,0.1021,0.1021,0.106,0.1062,0.1063,0.1064,0.1123,0.1124,0.1126,0.1113,0,0,0.113,0.113,0,0,0,0,0,0,0,0,0.1006,0.1007,0.1018,0.102,0.1023,0.1039,0.1042,0.1054,0.106,0.1047,0.1063,0.1064,0.1098,0.1101,0.1103,0.1116,0.1118,0.113,0.1131,0.1131,0.1132,0,0,0,0,0,0,0,0.1005,0.1006,0.1008,0.1018,0.1021,0.1032,0.1035,0.1045,0.1067,0.1048,0.1051,0.1052,0.1099,0.1101,0.1105,0.1119,0.113,0.1131,0.1132,0.1133,0.1187,0.1187,0,0,0,0,0,0,0.1,0.1005,0.1008,0.1009,0.1016,0.1031,0.1034,0.1033,0.1066,0.1072,0.1051,0.1054,0.1098,0.1103,0.1107,0.1163,0.1131,0.1133,0.1134,0.1186,0.1187,0.1187,0,0,0,0,0,0,0.1,0.1,0.1007,0.1008,0.1009,0.103,0.1028,0.1033,0.1059,0.1068,0.1075,0.1077,0.1099,0.1105,0.1134,0.1163,0.1133,0.1135,0.1185,0.1186,0.1187,0.1231,0,0,0,0,0,0,0.1,0.1,0.1013,0.1007,0.1009,0.1022,0.1027,0.1032,0.1057,0.1061,0.1091,0.1097,0.1101,0.1132,0.1136,0.1165,0.1136,0.1185,0.1186,0.1187,0.1229,0.1234,0.1237,0,0,0,0,0,0.1,0.101,0.1013,0.1015,0.1021,0.1022,0.1025,0.1043,0.1057,0.1071,0.109,0.1097,0.1142,0.1133,0.1138,0.1168,0.1184,0.1185,0.1187,0.1227,0.1233,0.1237,0,0,0,0,0,0,0.1019,0.1014,0.1018,0.1028,0.1032,0.1029,0.1048,0.1055,0.1079,0.1094,0.1102,0.1109,0.1147,0.1145,0.1136,0.1185,0.1165,0.1167,0.1194,0.1199,0.1203,0.1206,0.1137,0,0,0,0,0,0.1026,0.1034,0.1028,0.104,0.1044,0.1049,0.1059,0.1068,0.108,0.1093,0.1111,0.113,0.1149,0.1166,0.1179,0.1204,0.1207,0.1225,0.1229,0.1233,0.1237,0.1263,0.127,0.1192,0.1192,0.1192,0,0,0.1037,0.1037,0.1043,0.1045,0.1053,0.1057,0.1059,0.1078,0.109,0.1095,0.1131,0.1148,0.1158,0.1189,0.1206,0.1197,0.1257,0.1235,0.1238,0.124,0.1265,0.1273,0.1279,0.1193,0.1192,0.1192,0,0,0.1052,0.1063,0.1071,0.1074,0.1085,0.1084,0.1093,0.1101,0.112,0.1144,0.1155,0.1188,0.1212,0.1229,0.1238,0.127,0.1278,0.128,0.1308,0.1333,0.134,0.1346,0.1363,0.1371,0.1283,0.1283,0.1283,0,0.1068,0.1071,0.1076,0.1081,0.1088,0.1097,0.1105,0.1118,0.1137,0.1156,0.1164,0.1215,0.123,0.1267,0.1284,0.1283,0.1295,0.129,0.134,0.1346,0.1351,0.1367,0.1375,0.1285,0.1285,0.1285,0.1284,0,0.1075,0.1088,0.1095,0.1102,0.1112,0.1123,0.1131,0.1153,0.1176,0.1191,0.1242,0.1261,0.1294,0.1306,0.1308,0.1358,0.1353,0.1342,0.1329,0.1362,0.1377,0.1384,0.1288,0.1288,0.1287,0.1286,0,0,0.1075,0.1096,0.11,0.1107,0.1124,0.1126,0.1156,0.1178,0.1206,0.1239,0.1276,0.132,0.1345,0.1356,0.137,0.1394,0.1448,0.1392,0.1392,0.1413,0.1507,0.1394,0.139,0.1452,0.1453,0.1454,0.1503,0,0.1079,0.1093,0.1104,0.1121,0.1125,0.1146,0.1168,0.1197,0.1231,0.127,0.1308,0.1354,0.1359,0.1391,0.1417,0.1443,0.1468,0.1436,0.1468,0.1469,0.1368,0.1395,0.1459,0.1508,0.1509,0.1511,0.1511,0,0.1071,0.1083,0.1103,0.1126,0.1132,0.1149,0.119,0.1215,0.1272,0.1305,0.136,0.1391,0.1449,0.1441,0.1507,0.149,0.1506,0.1516,0.1518,0.1401,0.1368,0.1467,0.1524,0.1523,0.1522,0.1521,0.152,0,0.105,0.1077,0.1094,0.1101,0.1132,0.1155,0.1181,0.1235,0.1265,0.1341,0.1376,0.1441,0.1484,0.1518,0.155,0.1542,0.1603,0.159,0.1501,0.1493,0.1562,0.1555,0.1629,0.1629,0.1629,0.1629,0.1629,0,0.1031,0.1045,0.1091,0.1096,0.1123,0.1154,0.1198,0.1235,0.1298,0.1332,0.1403,0.1437,0.1509,0.1548,0.1566,0.1551,0.1621,0.1508,0.1498,0.1579,0.1573,0.1568,0.156,0.1631,0.163,0.163,0.163,0,0.0996,0.1028,0.1047,0.1094,0.1113,0.1135,0.1199,0.1225,0.1299,0.1346,0.1376,0.1457,0.1507,0.1552,0.1607,0.1561,0.1565,0.1541,0.1629,0.1622,0.1437,0.1431,0.1448,0.1444,0.1441,0.1439,0.1436,0,0.0975,0.0984,0.104,0.1056,0.1081,0.1124,0.1149,0.1221,0.1247,0.1341,0.135,0.1432,0.1472,0.146,0.1516,0.1532,0.1513,0.1501,0.1462,0.143,0.1419,0.1418,0.1416,0.1432,0.1431,0.143,0.1429,0,0.0931,0.0965,0.0983,0.102,0.1049,0.1074,0.1118,0.1128,0.1202,0.1278,0.1296,0.1318,0.136,0.1395,0.1411,0.1421,0.15,0.1469,0.1475,0.1439,0.1411,0.1402,0.1404,0.1419,0.142,0.1421,0.1422,0,0.0904,0.0909,0.0945,0.0964,0.1003,0.1007,0.1038,0.1057,0.1091,0.1184,0.1189,0.1268,0.1345,0.1337,0.1357,0.1351,0.1331,0.1282,0.1297,0.131,0.1239,0.1182,0.1113,0,0,0,0,0,0.0866,0.0864,0.0882,0.0898,0.0935,0.0959,0.1004,0.1034,0.1102,0.1081,0.1129,0.1161,0.1182,0.1231,0.1198,0.13,0.134,0.1255,0.1293,0.136,0.1372,0.13,0,0,0,0,0,0,0.0838,0.0858,0.0859,0.084,0.0844,0.0873,0.09,0.0945,0.0936,0.1012,0.1036,0.109,0.1139,0.1196,0.118,0.1192,0.1188,0.1305,0.1302,0.1353,0.1364,0.1374,0.1304,0,0,0,0,0]},{"header":{"parameterUnit":"m.s-1","parameterCategory":2,"la1":30.2991,"la2":30.254,"lo1":-89.0895,"lo2":-89.0444,"dx":0.0017,"dy":0.0017,"nx":28,"ny":28,"refTime":"2022-11-03T21:00:00:Z","depth":"4","parameterNumber":3,"parameterNumberName":"V-component_of_CURRENTS"},"data":[0,0,0,0,0,0,0,0,0,0,0,0,0,0,0,0,0,0,0,0,0,0,0,0,0,0,0,0,0,0,0,0,0,0,0,0,0,0,0,0,0,0,0,0,0,0,0,0,0,0,0,0,0,0,0,0,0,0,-0.0116,-0.0116,0,-0.0144,-0.0144,-0.0144,-0.0161,-0.0161,-0.0161,-0.0162,-0.0186,-0.0187,-0.0187,0,0,0,0,0,0,0,0,0,0,0,0,0,-0.0071,-0.0072,-0.0116,-0.0116,-0.0117,-0.0144,-0.0144,-0.0144,-0.0161,-0.0161,-0.0161,-0.0162,-0.0186,-0.0186,-0.0187,0,0,0,0,0,0,0,0,0,0,0,0,0,-0.0093,-0.0072,-0.0116,-0.0129,-0.0131,-0.0143,-0.0144,-0.0144,-0.0161,-0.0161,-0.0162,-0.0162,-0.0186,-0.0186,-0.0187,-0.0186,0,0,-0.0189,-0.019,0,0,0,0,0,0,0,0,-0.0092,-0.0094,-0.0127,-0.0128,-0.013,-0.015,-0.0137,-0.0158,-0.0161,-0.0148,-0.0162,-0.0162,-0.0174,-0.0176,-0.0179,-0.0187,-0.0188,-0.0189,-0.019,-0.019,-0.019,0,0,0,0,0,0,0,-0.009,-0.0093,-0.0126,-0.0127,-0.0129,-0.0132,-0.0135,-0.0141,-0.0159,-0.015,-0.0151,-0.0156,-0.0175,-0.0178,-0.018,-0.0189,-0.0189,-0.019,-0.019,-0.0191,-0.0211,-0.0211,0,0,0,0,0,0,-0.0089,-0.0092,-0.0125,-0.0127,-0.0112,-0.0132,-0.0136,-0.0143,-0.0159,-0.0162,-0.0155,-0.0156,-0.0177,-0.0179,-0.0181,-0.0184,-0.019,-0.0191,-0.0191,-0.0211,-0.0211,-0.0211,0,0,0,0,0,0,-0.0088,-0.0092,-0.0124,-0.0111,-0.0115,-0.0133,-0.014,-0.0143,-0.015,-0.0163,-0.0166,-0.016,-0.0177,-0.018,-0.0189,-0.0185,-0.0191,-0.0192,-0.0211,-0.0211,-0.0211,-0.0187,0,0,0,0,0,0,-0.0086,-0.0091,-0.0092,-0.0111,-0.0116,-0.0131,-0.014,-0.0143,-0.0152,-0.0154,-0.0168,-0.017,-0.0178,-0.0188,-0.019,-0.0186,-0.0192,-0.0211,-0.0211,-0.0211,-0.0188,-0.0187,-0.0186,0,0,0,0,0,-0.0085,-0.0084,-0.0091,-0.0095,-0.0117,-0.0131,-0.0134,-0.0147,-0.0152,-0.0154,-0.0165,-0.017,-0.019,-0.0188,-0.0191,-0.0187,-0.0211,-0.0211,-0.0211,-0.0189,-0.0187,-0.0186,0,0,0,0,0,0,-0.0063,-0.0087,-0.0095,-0.0101,-0.0116,-0.0135,-0.0135,-0.0147,-0.0156,-0.0157,-0.0171,-0.0174,-0.0181,-0.0189,-0.0186,-0.0194,-0.0202,-0.0202,-0.0184,-0.0183,-0.0181,-0.0172,-0.0193,0,0,0,0,0,-0.0059,-0.0065,-0.0089,-0.0092,-0.0099,-0.0117,-0.0124,-0.0134,-0.0147,-0.0152,-0.0163,-0.0174,-0.0183,-0.0187,-0.0196,-0.0199,-0.0213,-0.0199,-0.0198,-0.0196,-0.0191,-0.0216,-0.0217,-0.0212,-0.0212,-0.0212,0,0,-0.0051,-0.0065,-0.0068,-0.0088,-0.0098,-0.0105,-0.0121,-0.013,-0.0133,-0.0152,-0.0157,-0.017,-0.0184,-0.0188,-0.0191,-0.0194,-0.0206,-0.0197,-0.0195,-0.0191,-0.0217,-0.0217,-0.0218,-0.0212,-0.0212,-0.0212,0,0,-0.0039,-0.0051,-0.0053,-0.0064,-0.0082,-0.0093,-0.0097,-0.0117,-0.0124,-0.0133,-0.0147,-0.0158,-0.0171,-0.018,-0.0185,-0.0183,-0.02,-0.0187,-0.0171,-0.0195,-0.0196,-0.0196,-0.0215,-0.0217,-0.0185,-0.0185,-0.0185,0,-0.0029,-0.0037,-0.0055,-0.006,-0.0066,-0.0088,-0.009,-0.0098,-0.0119,-0.012,-0.0131,-0.0154,-0.0166,-0.0171,-0.0171,-0.0179,-0.0195,-0.0173,-0.0193,-0.0194,-0.0195,-0.0214,-0.0217,-0.0184,-0.0184,-0.0184,-0.0184,0,-0.0023,-0.0027,-0.0027,-0.0042,-0.0048,-0.0053,-0.007,-0.0074,-0.0086,-0.0097,-0.0108,-0.0129,-0.014,-0.0149,-0.0158,-0.0169,-0.0178,-0.019,-0.0195,-0.0194,-0.0214,-0.0217,-0.0182,-0.0182,-0.0183,-0.0183,0,0,-0.0011,-0.0021,-0.0022,-0.0021,-0.0039,-0.0043,-0.0043,-0.0051,-0.0049,-0.0071,-0.0072,-0.0093,-0.0106,-0.0114,-0.0131,-0.0153,-0.0175,-0.0171,-0.0172,-0.0185,-0.0227,-0.0218,-0.0221,-0.0192,-0.0192,-0.0193,-0.0237,0,-0.0002,-0.0001,-0.001,-0.0004,-0.0006,-0.0018,-0.0016,-0.0024,-0.0034,-0.0039,-0.0063,-0.007,-0.0092,-0.0096,-0.0121,-0.016,-0.0183,-0.0161,-0.0229,-0.023,-0.022,-0.0225,-0.0194,-0.024,-0.0241,-0.0241,-0.0242,0,0.0002,0.0003,0.001,0.0015,0.0014,0.0017,0.002,0.0021,0.001,0.0003,-0.0011,-0.0031,-0.0056,-0.0079,-0.0144,-0.0129,-0.0173,-0.0208,-0.0211,-0.0212,-0.0228,-0.0242,-0.0248,-0.0248,-0.0247,-0.0247,-0.0246,0,0.0013,0.0017,0.0027,0.0026,0.0026,0.0034,0.0039,0.0034,0.0043,0.0033,0.0035,-0.0003,-0.0018,-0.0078,-0.0143,-0.0146,-0.0221,-0.0235,-0.027,-0.027,-0.0274,-0.0273,-0.0286,-0.0286,-0.0285,-0.0285,-0.0285,0,0.002,0.0028,0.0036,0.0039,0.0058,0.0054,0.0074,0.0073,0.0078,0.0089,0.0061,0.0057,-0.002,-0.0069,-0.0135,-0.0208,-0.0216,-0.0265,-0.0281,-0.0263,-0.0261,-0.0277,-0.0275,-0.0287,-0.0287,-0.0286,-0.0286,0,0.0023,0.0028,0.004,0.0052,0.0061,0.0075,0.0102,0.0115,0.012,0.0132,0.0133,0.01,0.0039,-0.004,-0.0139,-0.0191,-0.0266,-0.0293,-0.0261,-0.0275,-0.0301,-0.0298,-0.0333,-0.0333,-0.0333,-0.0333,-0.0334,0,0.0022,0.0028,0.0051,0.0064,0.0071,0.0097,0.0113,0.0131,0.0147,0.0156,0.016,0.0118,0.0083,-0.0038,-0.0129,-0.0249,-0.0269,-0.0308,-0.031,-0.0294,-0.0306,-0.0303,-0.0299,-0.0334,-0.0334,-0.0334,-0.0334,0,0.0018,0.0027,0.0039,0.0066,0.0088,0.0117,0.0145,0.0162,0.0181,0.0192,0.0188,0.0134,0.0067,-0.003,-0.0121,-0.0211,-0.0282,-0.0309,-0.031,-0.0312,-0.0295,-0.0306,-0.0303,-0.0334,-0.0334,-0.0334,-0.0334,0,0.0014,0.0021,0.0037,0.0062,0.0093,0.012,0.0142,0.0165,0.0186,0.0203,0.0199,0.0137,0.0104,-0.0011,-0.0097,-0.0179,-0.0204,-0.0236,-0.0241,-0.0242,-0.0203,-0.0167,-0.0177,0,0,0,0,0,0.0003,0.0008,0.003,0.0055,0.0089,0.0104,0.0151,0.0171,0.0196,0.0199,0.0205,0.0147,0.004,-0.0004,-0.0084,-0.0118,-0.0234,-0.0216,-0.0277,-0.0335,-0.0335,-0.0304,0,0,0,0,0,0,-0.0009,0.0006,0.002,0.0045,0.006,0.0094,0.0121,0.0143,0.0152,0.0173,0.0123,0.0115,0.0012,0.0079,-0.0092,-0.0115,-0.0166,-0.026,-0.0262,-0.0335,-0.0335,-0.0335,-0.0303,0,0,0,0,0]}]]